,,PA_Meas_PMT16A,,PR_Meas_QMR101_102,,RH_Meas_QMH101,,SR_Meas_QMS101,,TA_Meas_QMH101,,GenWind,,GenWind,
time,status,PA,status,PR,status,RH,status,SR,status,TA,status,DirAvg,status,SpdAvg,
2010-03-31, 00:00:05,VALID,919.195,VALID,0,VALID,96.703,VALID,0,VALID,19.9368,VALID,356,VALID,0,
2010-03-31, 00:01:05,VALID,919.173,VALID,0,VALID,96.7411,VALID,0,VALID,19.9353,VALID,356,VALID,0,
2010-03-31, 00:02:05,VALID,919.155,VALID,0,VALID,96.7869,VALID,0.107441,VALID,19.9548,VALID,356,VALID,0,
2010-03-31, 00:03:05,VALID,919.139,VALID,0,VALID,96.8098,VALID,0.107441,VALID,19.9938,VALID,356,VALID,0,
2010-03-31, 00:04:05,VALID,919.164,VALID,0,VALID,96.825,VALID,0.107441,VALID,19.9938,VALID,356,VALID,0,
2010-03-31, 00:05:05,VALID,919.143,VALID,0,VALID,96.8479,VALID,0,VALID,20.0133,VALID,356,VALID,0,
2010-03-31, 00:06:05,VALID,919.153,VALID,0,VALID,96.8326,VALID,0,VALID,20.0148,VALID,356,VALID,0,
2010-03-31, 00:07:05,VALID,919.136,VALID,0,VALID,96.8555,VALID,0,VALID,19.9938,VALID,356,VALID,0,
2010-03-31, 00:08:05,VALID,919.132,VALID,0,VALID,96.825,VALID,0.107441,VALID,20.0148,VALID,356,VALID,0.175391,
2010-03-31, 00:09:05,VALID,919.104,VALID,0,VALID,96.8326,VALID,0,VALID,19.9938,VALID,356,VALID,0.159766,
2010-03-31, 00:10:05,VALID,919.116,VALID,0,VALID,96.8403,VALID,0,VALID,19.9938,VALID,356,VALID,0.0535156,
2010-03-31, 00:11:05,VALID,919.116,VALID,0,VALID,96.8479,VALID,0,VALID,20.0148,VALID,356,VALID,0,
2010-03-31, 00:12:05,VALID,919.108,VALID,0,VALID,96.8707,VALID,0.107441,VALID,19.9938,VALID,356,VALID,0,
2010-03-31, 00:13:05,VALID,919.078,VALID,0,VALID,96.8326,VALID,0,VALID,20.0133,VALID,356,VALID,0,
2010-03-31, 00:14:05,VALID,919.064,VALID,0,VALID,96.7793,VALID,0.107441,VALID,19.9743,VALID,356,VALID,0,
2010-03-31, 00:15:05,VALID,919.062,VALID,0,VALID,96.6954,VALID,0,VALID,19.9353,VALID,356,VALID,0,
2010-03-31, 00:16:05,VALID,919.036,VALID,0,VALID,96.7107,VALID,0,VALID,19.9173,VALID,356,VALID,0,
2010-03-31, 00:17:05,VALID,919.043,VALID,0,VALID,96.703,VALID,0,VALID,19.9173,VALID,356,VALID,0,
2010-03-31, 00:18:04,VALID,919.043,VALID,0,VALID,96.7488,VALID,0,VALID,19.8978,VALID,356,VALID,0,
2010-03-31, 00:19:04,VALID,919.007,VALID,0,VALID,96.703,VALID,0,VALID,19.8978,VALID,356,VALID,0,
2010-03-31, 00:20:04,VALID,918.995,VALID,0,VALID,96.6649,VALID,0,VALID,19.8588,VALID,356,VALID,0,
2010-03-31, 00:21:04,VALID,918.996,VALID,0,VALID,96.642,VALID,0,VALID,19.8588,VALID,356,VALID,0,
2010-03-31, 00:22:04,VALID,918.965,VALID,0,VALID,96.642,VALID,0,VALID,19.8183,VALID,356,VALID,0,
2010-03-31, 00:23:04,VALID,918.969,VALID,0,VALID,96.703,VALID,0,VALID,19.8393,VALID,356,VALID,0,
2010-03-31, 00:24:04,VALID,918.941,VALID,0,VALID,96.7335,VALID,0,VALID,19.8393,VALID,356,VALID,0,
2010-03-31, 00:25:04,VALID,918.907,VALID,0,VALID,96.7869,VALID,0,VALID,19.8393,VALID,356,VALID,0,
2010-03-31, 00:26:04,VALID,918.902,VALID,0,VALID,96.886,VALID,0,VALID,19.9173,VALID,356,VALID,0.0695312,
2010-03-31, 00:27:04,VALID,918.921,VALID,0,VALID,96.9165,VALID,0,VALID,19.9953,VALID,356,VALID,0,
2010-03-31, 00:28:04,VALID,918.938,VALID,0,VALID,96.9317,VALID,0,VALID,20.0148,VALID,356,VALID,0.021875,
2010-03-31, 00:29:04,VALID,918.91,VALID,0,VALID,96.9241,VALID,0,VALID,20.0148,VALID,356,VALID,0.271094,
2010-03-31, 00:30:04,VALID,918.913,VALID,0,VALID,96.9241,VALID,0,VALID,20.0538,VALID,356,VALID,0.275781,
2010-03-31, 00:31:04,VALID,918.903,VALID,0,VALID,96.9394,VALID,0,VALID,20.0523,VALID,356,VALID,0.219531,
2010-03-31, 00:32:04,VALID,918.907,VALID,0,VALID,96.9394,VALID,0.107441,VALID,20.0928,VALID,356,VALID,0.0773437,
2010-03-31, 00:33:04,VALID,918.877,VALID,0,VALID,96.947,VALID,0,VALID,20.0718,VALID,356,VALID,0,
2010-03-31, 00:34:04,VALID,918.89,VALID,0,VALID,96.9241,VALID,0,VALID,20.0913,VALID,356,VALID,0,
2010-03-31, 00:35:04,VALID,918.856,VALID,0,VALID,96.9317,VALID,0,VALID,20.0718,VALID,356,VALID,0,
2010-03-31, 00:36:04,VALID,918.834,VALID,0,VALID,96.7411,VALID,0.107441,VALID,20.0133,VALID,356,VALID,0,
2010-03-31, 00:37:04,VALID,918.834,VALID,0,VALID,96.703,VALID,0.107441,VALID,19.9353,VALID,356,VALID,0.137891,
2010-03-31, 00:38:04,VALID,918.833,VALID,0,VALID,96.7107,VALID,0,VALID,19.8963,VALID,356,VALID,0.376563,
2010-03-31, 00:39:04,VALID,918.802,VALID,0,VALID,96.6802,VALID,0,VALID,19.8183,VALID,356,VALID,0.707031,
2010-03-31, 00:40:04,VALID,918.8,VALID,0,VALID,96.6497,VALID,0.107441,VALID,19.7793,VALID,356,VALID,0.528516,
2010-03-31, 00:41:04,VALID,918.818,VALID,0,VALID,96.764,VALID,0,VALID,19.7598,VALID,356,VALID,0.658594,
2010-03-31, 00:42:04,VALID,918.79,VALID,0,VALID,96.7488,VALID,0.107441,VALID,19.7808,VALID,356,VALID,0.447656,
2010-03-31, 00:43:04,VALID,918.802,VALID,0,VALID,96.7945,VALID,0,VALID,19.7403,VALID,356,VALID,0.416406,
2010-03-31, 00:44:04,VALID,918.787,VALID,0,VALID,96.8098,VALID,0,VALID,19.7613,VALID,356,VALID,0.227344,
2010-03-31, 00:45:04,VALID,918.779,VALID,0,VALID,96.8631,VALID,0,VALID,19.7403,VALID,356,VALID,0.244922,
2010-03-31, 00:46:04,VALID,918.806,VALID,0,VALID,96.9089,VALID,0.107441,VALID,19.7208,VALID,356,VALID,0,
2010-03-31, 00:47:04,VALID,918.815,VALID,0,VALID,96.9775,VALID,0.107441,VALID,19.7598,VALID,356,VALID,0.164453,
2010-03-31, 00:48:04,VALID,918.835,VALID,0,VALID,97.0537,VALID,0,VALID,19.7988,VALID,356,VALID,0.0222656,
2010-03-31, 00:49:04,VALID,918.803,VALID,0,VALID,97.0994,VALID,0.107441,VALID,19.8768,VALID,356,VALID,0.172656,
2010-03-31, 00:50:04,VALID,918.787,VALID,0,VALID,97.1223,VALID,0.107441,VALID,19.9353,VALID,356,VALID,0.0617188,
2010-03-31, 00:51:04,VALID,918.768,VALID,0,VALID,97.1223,VALID,0.107441,VALID,19.9548,VALID,356,VALID,0.0699219,
2010-03-31, 00:52:04,VALID,918.736,VALID,0,VALID,97.1299,VALID,0.107441,VALID,19.9533,VALID,356,VALID,0,
2010-03-31, 00:53:04,VALID,918.722,VALID,0,VALID,97.0918,VALID,0.107441,VALID,19.9743,VALID,356,VALID,0,
2010-03-31, 00:54:04,VALID,918.705,VALID,0,VALID,97.1071,VALID,0.107441,VALID,19.9743,VALID,356,VALID,0,
2010-03-31, 00:55:04,VALID,918.706,VALID,0,VALID,97.1452,VALID,0,VALID,19.9938,VALID,356,VALID,0,
2010-03-31, 00:56:04,VALID,918.665,VALID,0,VALID,97.1223,VALID,0.107441,VALID,20.0133,VALID,356,VALID,0,
2010-03-31, 00:57:04,VALID,918.667,VALID,0,VALID,97.0766,VALID,0.107441,VALID,19.9743,VALID,356,VALID,0,
2010-03-31, 00:58:04,VALID,918.663,VALID,0,VALID,97.0994,VALID,0,VALID,19.9548,VALID,356,VALID,0,
2010-03-31, 00:59:04,VALID,918.644,VALID,0,VALID,97.0842,VALID,0.107441,VALID,19.9338,VALID,356,VALID,0,
2010-03-31, 01:00:04,VALID,918.665,VALID,0,VALID,97.0994,VALID,0.107441,VALID,19.9353,VALID,356,VALID,0,
2010-03-31, 01:01:04,VALID,918.634,VALID,0,VALID,97.069,VALID,0,VALID,19.9368,VALID,356,VALID,0,
2010-03-31, 01:02:04,VALID,918.63,VALID,0,VALID,97.0918,VALID,0,VALID,19.8963,VALID,356,VALID,0,
2010-03-31, 01:03:04,VALID,918.615,VALID,0,VALID,97.0994,VALID,0,VALID,19.9173,VALID,356,VALID,0,
2010-03-31, 01:04:04,VALID,918.631,VALID,0,VALID,97.0842,VALID,0,VALID,19.8963,VALID,356,VALID,0,
2010-03-31, 01:05:04,VALID,918.619,VALID,0,VALID,97.0766,VALID,0,VALID,19.8978,VALID,356,VALID,0,
2010-03-31, 01:06:04,VALID,918.597,VALID,0,VALID,97.0461,VALID,0,VALID,19.8588,VALID,356,VALID,0,
2010-03-31, 01:07:04,VALID,918.592,VALID,0,VALID,97.0461,VALID,0,VALID,19.8198,VALID,356,VALID,0.252344,
2010-03-31, 01:08:04,VALID,918.594,VALID,0,VALID,97.0308,VALID,0,VALID,19.7613,VALID,356,VALID,0.339063,
2010-03-31, 01:09:04,VALID,918.595,VALID,0,VALID,97.0308,VALID,0,VALID,19.7808,VALID,356,VALID,0.394141,
2010-03-31, 01:10:04,VALID,918.608,VALID,0,VALID,97.0385,VALID,0,VALID,19.7223,VALID,356,VALID,0.549609,
2010-03-31, 01:11:04,VALID,918.585,VALID,0,VALID,97.0766,VALID,0,VALID,19.7628,VALID,356,VALID,0.674219,
2010-03-31, 01:12:04,VALID,918.57,VALID,0,VALID,97.0842,VALID,0,VALID,19.7613,VALID,356,VALID,0.558203,
2010-03-31, 01:13:04,VALID,918.566,VALID,0,VALID,97.1376,VALID,0,VALID,19.7613,VALID,356,VALID,0.50625,
2010-03-31, 01:14:04,VALID,918.569,VALID,0,VALID,97.1299,VALID,0,VALID,19.7613,VALID,356,VALID,0.733203,
2010-03-31, 01:15:04,VALID,918.56,VALID,0,VALID,97.1376,VALID,0,VALID,19.7613,VALID,356,VALID,0.816016,
2010-03-31, 01:16:04,VALID,918.57,VALID,0,VALID,97.1757,VALID,0.107441,VALID,19.7598,VALID,356,VALID,0.811328,
2010-03-31, 01:17:04,VALID,918.538,VALID,0,VALID,97.1909,VALID,0.107441,VALID,19.7793,VALID,356,VALID,0.678125,
2010-03-31, 01:18:04,VALID,918.536,VALID,0,VALID,97.1833,VALID,0,VALID,19.7793,VALID,356,VALID,0.784766,
2010-03-31, 01:19:04,VALID,918.537,VALID,0,VALID,97.1986,VALID,0,VALID,19.7793,VALID,356,VALID,0.754297,
2010-03-31, 01:20:04,VALID,918.531,VALID,0,VALID,97.2062,VALID,0.107441,VALID,19.7988,VALID,356,VALID,0.41875,
2010-03-31, 01:21:04,VALID,918.504,VALID,0,VALID,97.1833,VALID,0.107441,VALID,19.7988,VALID,356,VALID,0.311719,
2010-03-31, 01:22:04,VALID,918.475,VALID,0,VALID,97.1909,VALID,0.107441,VALID,19.7793,VALID,356,VALID,0.483984,
2010-03-31, 01:23:04,VALID,918.454,VALID,0,VALID,97.1757,VALID,0.107441,VALID,19.7793,VALID,356,VALID,0.265625,
2010-03-31, 01:24:04,VALID,918.431,VALID,0,VALID,97.1986,VALID,0.107441,VALID,19.7793,VALID,356,VALID,0.00351562,
2010-03-31, 01:25:04,VALID,918.411,VALID,0,VALID,97.1833,VALID,0.107441,VALID,19.7598,VALID,356,VALID,0.178516,
2010-03-31, 01:26:04,VALID,918.385,VALID,0,VALID,97.1909,VALID,0.107441,VALID,19.7403,VALID,356,VALID,0.173047,
2010-03-31, 01:27:04,VALID,918.371,VALID,0,VALID,97.1833,VALID,0.107441,VALID,19.7013,VALID,356,VALID,0.202344,
2010-03-31, 01:28:04,VALID,918.363,VALID,0,VALID,97.1681,VALID,0.107441,VALID,19.6818,VALID,356,VALID,0,
2010-03-31, 01:29:04,VALID,918.343,VALID,0,VALID,97.1909,VALID,0.107441,VALID,19.7013,VALID,356,VALID,0,
2010-03-31, 01:30:04,VALID,918.294,VALID,0,VALID,97.2062,VALID,0.107441,VALID,19.6818,VALID,356,VALID,0.197656,
2010-03-31, 01:31:04,VALID,918.277,VALID,0,VALID,97.1986,VALID,0.107441,VALID,19.6623,VALID,356,VALID,0.545313,
2010-03-31, 01:32:04,VALID,918.295,VALID,0,VALID,97.2214,VALID,0.107441,VALID,19.6623,VALID,356,VALID,0.301172,
2010-03-31, 01:33:04,VALID,918.26,VALID,0,VALID,97.2367,VALID,0,VALID,19.6818,VALID,356,VALID,0.133594,
2010-03-31, 01:34:04,VALID,918.296,VALID,0,VALID,97.229,VALID,0.107441,VALID,19.7013,VALID,356,VALID,0.167578,
2010-03-31, 01:35:04,VALID,918.263,VALID,0,VALID,97.2672,VALID,0.107441,VALID,19.7013,VALID,356,VALID,0.38125,
2010-03-31, 01:36:04,VALID,918.246,VALID,0,VALID,97.2519,VALID,0.107441,VALID,19.6623,VALID,356,VALID,0.350391,
2010-03-31, 01:37:04,VALID,918.231,VALID,0,VALID,97.2519,VALID,0,VALID,19.6818,VALID,356,VALID,0,
2010-03-31, 01:38:04,VALID,918.187,VALID,0,VALID,97.2062,VALID,0,VALID,19.6233,VALID,356,VALID,0,
2010-03-31, 01:39:04,VALID,918.164,VALID,0,VALID,97.1833,VALID,0.107441,VALID,19.5843,VALID,356,VALID,0.199219,
2010-03-31, 01:40:04,VALID,918.162,VALID,0,VALID,97.1681,VALID,0.107441,VALID,19.5453,VALID,356,VALID,0.200781,
2010-03-31, 01:41:04,VALID,918.131,VALID,0,VALID,97.229,VALID,0.107441,VALID,19.5468,VALID,356,VALID,0.115625,
2010-03-31, 01:42:04,VALID,918.106,VALID,0,VALID,97.2214,VALID,0.107441,VALID,19.5048,VALID,356,VALID,0,
2010-03-31, 01:43:04,VALID,918.073,VALID,0,VALID,97.2138,VALID,0.107441,VALID,19.5273,VALID,356,VALID,0,
2010-03-31, 01:44:04,VALID,918.071,VALID,0,VALID,97.2443,VALID,0.107441,VALID,19.5063,VALID,356,VALID,0,
2010-03-31, 01:45:04,VALID,918.057,VALID,0,VALID,97.2443,VALID,0.107441,VALID,19.5063,VALID,356,VALID,0,
2010-03-31, 01:46:04,VALID,918.028,VALID,0,VALID,97.2062,VALID,0.107441,VALID,19.4868,VALID,356,VALID,0.107031,
2010-03-31, 01:47:04,VALID,917.999,VALID,0,VALID,97.1833,VALID,0.107441,VALID,19.4478,VALID,356,VALID,0,
2010-03-31, 01:48:04,VALID,917.971,VALID,0,VALID,97.1833,VALID,0,VALID,19.4088,VALID,356,VALID,0,
2010-03-31, 01:49:04,VALID,917.967,VALID,0,VALID,97.2672,VALID,0.107441,VALID,19.4088,VALID,356,VALID,0,
2010-03-31, 01:50:04,VALID,917.962,VALID,0,VALID,97.2519,VALID,0.107441,VALID,19.4478,VALID,356,VALID,0.435547,
2010-03-31, 01:51:04,VALID,917.95,VALID,0,VALID,97.2595,VALID,0.107441,VALID,19.4478,VALID,356,VALID,0.252734,
2010-03-31, 01:52:04,VALID,917.94,VALID,0,VALID,97.29,VALID,0,VALID,19.4673,VALID,356,VALID,0.3875,
2010-03-31, 01:53:04,VALID,917.951,VALID,0,VALID,97.2824,VALID,0.107441,VALID,19.4283,VALID,356,VALID,0.19375,
2010-03-31, 01:54:04,VALID,917.929,VALID,0,VALID,97.2748,VALID,0.107441,VALID,19.3698,VALID,356,VALID,0.453125,
2010-03-31, 01:55:04,VALID,917.909,VALID,0,VALID,97.2519,VALID,0.107441,VALID,19.3113,VALID,356,VALID,0.630859,
2010-03-31, 01:56:04,VALID,917.907,VALID,0,VALID,97.229,VALID,0,VALID,19.2933,VALID,356,VALID,0.901563,
2010-03-31, 01:57:04,VALID,917.897,VALID,0,VALID,97.29,VALID,0,VALID,19.3518,VALID,356,VALID,0.996484,
2010-03-31, 01:58:04,VALID,917.89,VALID,0,VALID,97.2977,VALID,0.107441,VALID,19.3113,VALID,356,VALID,0.878125,
2010-03-31, 01:59:04,VALID,917.841,VALID,0,VALID,97.3053,VALID,0,VALID,19.3323,VALID,356,VALID,0.562109,
2010-03-31, 02:00:04,VALID,917.849,VALID,0,VALID,97.3053,VALID,0,VALID,19.3308,VALID,356,VALID,0.519531,
2010-03-31, 02:01:04,VALID,917.822,VALID,0,VALID,97.3434,VALID,0.107441,VALID,19.3503,VALID,356,VALID,0.491406,
2010-03-31, 02:02:04,VALID,917.811,VALID,0,VALID,97.3205,VALID,0,VALID,19.3308,VALID,356,VALID,0.552344,
2010-03-31, 02:03:04,VALID,917.789,VALID,0,VALID,97.3358,VALID,0.107441,VALID,19.3113,VALID,356,VALID,0.386719,
2010-03-31, 02:04:04,VALID,917.76,VALID,0,VALID,97.3434,VALID,0,VALID,19.3518,VALID,356,VALID,0.128516,
2010-03-31, 02:05:04,VALID,917.746,VALID,0,VALID,97.3586,VALID,0,VALID,19.3503,VALID,356,VALID,0.700781,
2010-03-31, 02:06:04,VALID,917.755,VALID,0,VALID,97.351,VALID,0.107441,VALID,19.3713,VALID,356,VALID,0.767187,
2010-03-31, 02:07:04,VALID,917.753,VALID,0,VALID,97.3663,VALID,0,VALID,19.3698,VALID,45,VALID,0.79375,
2010-03-31, 02:08:04,VALID,917.71,VALID,0,VALID,97.3891,VALID,0,VALID,19.4298,VALID,142,VALID,0.375781,
2010-03-31, 02:09:04,VALID,917.695,VALID,0,VALID,97.3815,VALID,0,VALID,19.4103,VALID,142,VALID,0.121875,
2010-03-31, 02:10:04,VALID,917.701,VALID,0,VALID,97.3891,VALID,0,VALID,19.4493,VALID,142,VALID,0.729688,
2010-03-31, 02:11:04,VALID,917.678,VALID,0,VALID,97.4044,VALID,0.107441,VALID,19.4283,VALID,142,VALID,0.435156,
2010-03-31, 02:12:04,VALID,917.638,VALID,0,VALID,97.3968,VALID,0.107441,VALID,19.4088,VALID,142,VALID,0.727734,
2010-03-31, 02:13:04,VALID,917.632,VALID,0,VALID,97.3891,VALID,0.107441,VALID,19.3698,VALID,142,VALID,0.458984,
2010-03-31, 02:14:04,VALID,917.646,VALID,0,VALID,97.3739,VALID,0,VALID,19.3713,VALID,142,VALID,0.443359,
2010-03-31, 02:15:04,VALID,917.654,VALID,0,VALID,97.3968,VALID,0.107441,VALID,19.3308,VALID,142,VALID,0.39375,
2010-03-31, 02:16:04,VALID,917.622,VALID,0,VALID,97.3968,VALID,0,VALID,19.3713,VALID,142,VALID,0.571094,
2010-03-31, 02:17:04,VALID,917.617,VALID,0,VALID,97.412,VALID,0,VALID,19.3698,VALID,142,VALID,0.357812,
2010-03-31, 02:18:04,VALID,917.648,VALID,0,VALID,97.4196,VALID,0,VALID,19.3713,VALID,142,VALID,0.383203,
2010-03-31, 02:19:04,VALID,917.653,VALID,0,VALID,97.412,VALID,0,VALID,19.3503,VALID,142,VALID,0.372656,
2010-03-31, 02:20:04,VALID,917.665,VALID,0,VALID,97.3968,VALID,0.107441,VALID,19.3698,VALID,142,VALID,0.474609,
2010-03-31, 02:21:04,VALID,917.621,VALID,0,VALID,97.412,VALID,0,VALID,19.3713,VALID,142,VALID,0.538672,
2010-03-31, 02:22:04,VALID,917.664,VALID,0,VALID,97.4273,VALID,0,VALID,19.3113,VALID,142,VALID,0.405078,
2010-03-31, 02:23:04,VALID,917.632,VALID,0,VALID,97.4196,VALID,0.107441,VALID,19.2528,VALID,142,VALID,0.313281,
2010-03-31, 02:24:04,VALID,917.663,VALID,0,VALID,97.3815,VALID,0,VALID,19.1554,VALID,142,VALID,0.219922,
2010-03-31, 02:25:04,VALID,917.681,VALID,0,VALID,97.4044,VALID,0,VALID,19.1373,VALID,142,VALID,0,
2010-03-31, 02:26:04,VALID,917.695,VALID,0,VALID,97.412,VALID,0,VALID,19.1749,VALID,142,VALID,0,
2010-03-31, 02:27:04,VALID,917.681,VALID,0,VALID,97.412,VALID,0.107441,VALID,19.1763,VALID,142,VALID,0,
2010-03-31, 02:28:04,VALID,917.706,VALID,0,VALID,97.3815,VALID,0,VALID,19.0384,VALID,142,VALID,0,
2010-03-31, 02:29:04,VALID,917.694,VALID,0,VALID,97.3968,VALID,0,VALID,19.0189,VALID,142,VALID,0,
2010-03-31, 02:30:04,VALID,917.678,VALID,0,VALID,97.3891,VALID,0.107441,VALID,19.0774,VALID,142,VALID,0,
2010-03-31, 02:31:04,VALID,917.704,VALID,0,VALID,97.412,VALID,0.107441,VALID,19.1178,VALID,142,VALID,0,
2010-03-31, 02:32:04,VALID,917.732,VALID,0,VALID,97.4425,VALID,0.107441,VALID,19.1178,VALID,142,VALID,0,
2010-03-31, 02:33:04,VALID,917.724,VALID,0,VALID,97.4425,VALID,0.107441,VALID,19.0774,VALID,142,VALID,0,
2010-03-31, 02:34:04,VALID,917.74,VALID,0,VALID,97.4349,VALID,0.107441,VALID,19.0398,VALID,142,VALID,0,
2010-03-31, 02:35:04,VALID,917.724,VALID,0,VALID,97.4501,VALID,0.107441,VALID,19.0398,VALID,142,VALID,0,
2010-03-31, 02:36:04,VALID,917.733,VALID,0,VALID,97.4501,VALID,0,VALID,19.0384,VALID,142,VALID,0,
2010-03-31, 02:37:04,VALID,917.71,VALID,0,VALID,97.4501,VALID,0.107441,VALID,18.9799,VALID,142,VALID,0,
2010-03-31, 02:38:04,VALID,917.725,VALID,0,VALID,97.4349,VALID,0.107441,VALID,18.9214,VALID,142,VALID,0,
2010-03-31, 02:39:04,VALID,917.698,VALID,0,VALID,97.4349,VALID,0.107441,VALID,18.9424,VALID,142,VALID,0,
2010-03-31, 02:40:04,VALID,917.707,VALID,0,VALID,97.4196,VALID,0.107441,VALID,18.9034,VALID,142,VALID,0,
2010-03-31, 02:41:04,VALID,917.681,VALID,0,VALID,97.4349,VALID,0,VALID,18.8644,VALID,142,VALID,0,
2010-03-31, 02:42:04,VALID,917.686,VALID,0,VALID,97.3968,VALID,0.107441,VALID,18.8045,VALID,142,VALID,0,
2010-03-31, 02:43:04,VALID,917.69,VALID,0,VALID,97.3815,VALID,0.107441,VALID,18.7474,VALID,142,VALID,0,
2010-03-31, 02:44:04,VALID,917.691,VALID,0,VALID,97.3586,VALID,0.107441,VALID,18.6485,VALID,142,VALID,0,
2010-03-31, 02:45:04,VALID,917.682,VALID,0,VALID,97.2138,VALID,0.107441,VALID,18.5511,VALID,142,VALID,0.34375,
2010-03-31, 02:46:04,VALID,917.663,VALID,0,VALID,97.2672,VALID,0.107441,VALID,18.494,VALID,142,VALID,0.184375,
2010-03-31, 02:47:04,VALID,917.649,VALID,0,VALID,97.4273,VALID,0,VALID,18.533,VALID,142,VALID,0.221094,
2010-03-31, 02:48:04,VALID,917.643,VALID,0,VALID,97.473,VALID,0.107441,VALID,18.6694,VALID,142,VALID,0.228906,
2010-03-31, 02:49:04,VALID,917.636,VALID,0,VALID,97.5111,VALID,0,VALID,18.7279,VALID,142,VALID,0.241406,
2010-03-31, 02:50:04,VALID,917.614,VALID,0,VALID,97.5416,VALID,0,VALID,18.8059,VALID,142,VALID,0.341797,
2010-03-31, 02:51:04,VALID,917.609,VALID,0,VALID,97.5721,VALID,0.107441,VALID,18.9424,VALID,142,VALID,0.344141,
2010-03-31, 02:52:04,VALID,917.614,VALID,0,VALID,97.5797,VALID,0.107441,VALID,18.9619,VALID,142,VALID,0.130469,
2010-03-31, 02:53:04,VALID,917.62,VALID,0,VALID,97.5645,VALID,0.107441,VALID,18.9229,VALID,142,VALID,0.0230469,
2010-03-31, 02:54:04,VALID,917.615,VALID,0,VALID,97.5416,VALID,0,VALID,18.8644,VALID,142,VALID,0.09375,
2010-03-31, 02:55:04,VALID,917.613,VALID,0,VALID,97.5416,VALID,0.107441,VALID,18.8644,VALID,142,VALID,0.35,
2010-03-31, 02:56:04,VALID,917.606,VALID,0,VALID,97.5416,VALID,0.107441,VALID,18.8629,VALID,142,VALID,0.35,
2010-03-31, 02:57:04,VALID,917.59,VALID,0,VALID,97.5645,VALID,0.107441,VALID,18.9409,VALID,142,VALID,0.529688,
2010-03-31, 02:58:04,VALID,917.565,VALID,0,VALID,97.5645,VALID,0.107441,VALID,19.0788,VALID,142,VALID,0.584766,
2010-03-31, 02:59:04,VALID,917.582,VALID,0,VALID,97.5645,VALID,0,VALID,19.1763,VALID,142,VALID,0.483203,
2010-03-31, 03:00:04,VALID,917.563,VALID,0,VALID,97.5492,VALID,0.107441,VALID,19.1958,VALID,142,VALID,0.482812,
2010-03-31, 03:01:04,VALID,917.592,VALID,0,VALID,97.5721,VALID,0.107441,VALID,19.1944,VALID,142,VALID,0.351172,
2010-03-31, 03:02:04,VALID,917.605,VALID,0,VALID,97.5873,VALID,0.107441,VALID,19.1763,VALID,142,VALID,0.292188,
2010-03-31, 03:03:04,VALID,917.618,VALID,0,VALID,97.5569,VALID,0,VALID,19.1178,VALID,142,VALID,0.310547,
2010-03-31, 03:04:04,VALID,917.599,VALID,0,VALID,97.5569,VALID,0.107441,VALID,19.1359,VALID,142,VALID,0.528516,
2010-03-31, 03:05:04,VALID,917.581,VALID,0,VALID,97.5416,VALID,0.107441,VALID,19.1763,VALID,142,VALID,0.335938,
2010-03-31, 03:06:04,VALID,917.594,VALID,0,VALID,97.5645,VALID,0.107441,VALID,19.1763,VALID,142,VALID,0.356641,
2010-03-31, 03:07:04,VALID,917.6,VALID,0,VALID,97.5645,VALID,0.107441,VALID,19.1373,VALID,142,VALID,0,
2010-03-31, 03:08:04,VALID,917.61,VALID,0,VALID,97.5492,VALID,0,VALID,19.0983,VALID,142,VALID,0.0722656,
2010-03-31, 03:09:04,VALID,917.604,VALID,0,VALID,97.5721,VALID,0.107441,VALID,19.1178,VALID,142,VALID,0.527344,
2010-03-31, 03:10:04,VALID,917.582,VALID,0,VALID,97.5569,VALID,0,VALID,19.1178,VALID,142,VALID,0.499609,
2010-03-31, 03:11:04,VALID,917.593,VALID,0,VALID,97.5187,VALID,0.107441,VALID,18.9034,VALID,142,VALID,0.159766,
2010-03-31, 03:12:04,VALID,917.619,VALID,0,VALID,97.4501,VALID,0.107441,VALID,18.6304,VALID,142,VALID,0.573828,
2010-03-31, 03:13:04,VALID,917.612,VALID,0,VALID,97.4501,VALID,0.107441,VALID,18.6889,VALID,142,VALID,0.398047,
2010-03-31, 03:14:04,VALID,917.61,VALID,0,VALID,97.4577,VALID,0.107441,VALID,18.6875,VALID,142,VALID,0.228906,
2010-03-31, 03:15:04,VALID,917.621,VALID,0,VALID,97.4882,VALID,0.107441,VALID,18.7279,VALID,142,VALID,0.164063,
2010-03-31, 03:16:04,VALID,917.644,VALID,0,VALID,97.4959,VALID,0.107441,VALID,18.7279,VALID,142,VALID,0.428125,
2010-03-31, 03:17:04,VALID,917.689,VALID,0,VALID,97.5187,VALID,0.107441,VALID,18.824,VALID,142,VALID,0.453906,
2010-03-31, 03:18:04,VALID,917.645,VALID,0,VALID,97.5264,VALID,0.107441,VALID,18.8059,VALID,142,VALID,0,
2010-03-31, 03:19:04,VALID,917.661,VALID,0,VALID,97.5264,VALID,0.107441,VALID,18.6889,VALID,142,VALID,0,
2010-03-31, 03:20:04,VALID,917.657,VALID,0,VALID,97.473,VALID,0.107441,VALID,18.533,VALID,142,VALID,0.0257812,
2010-03-31, 03:21:04,VALID,917.675,VALID,0,VALID,97.473,VALID,0.107441,VALID,18.6875,VALID,142,VALID,0.2125,
2010-03-31, 03:22:04,VALID,917.692,VALID,0,VALID,97.5111,VALID,0,VALID,18.8059,VALID,142,VALID,0,
2010-03-31, 03:23:04,VALID,917.674,VALID,0,VALID,97.5264,VALID,0.107441,VALID,18.8449,VALID,142,VALID,0.148047,
2010-03-31, 03:24:04,VALID,917.715,VALID,0,VALID,97.4959,VALID,0.107441,VALID,18.824,VALID,142,VALID,0.0289063,
2010-03-31, 03:25:04,VALID,917.689,VALID,0,VALID,97.5721,VALID,0.107441,VALID,18.785,VALID,142,VALID,0,
2010-03-31, 03:26:04,VALID,917.723,VALID,0,VALID,97.5569,VALID,0.107441,VALID,18.8059,VALID,142,VALID,0,
2010-03-31, 03:27:04,VALID,917.735,VALID,0,VALID,97.5492,VALID,0.107441,VALID,18.8839,VALID,142,VALID,0,
2010-03-31, 03:28:04,VALID,917.698,VALID,0,VALID,97.5721,VALID,0,VALID,18.9814,VALID,142,VALID,0,
2010-03-31, 03:29:04,VALID,917.68,VALID,0,VALID,97.5797,VALID,0.107441,VALID,18.9229,VALID,142,VALID,0,
2010-03-31, 03:30:04,VALID,917.673,VALID,0,VALID,97.5797,VALID,0.107441,VALID,18.9034,VALID,142,VALID,0,
2010-03-31, 03:31:04,VALID,917.673,VALID,0,VALID,97.5721,VALID,0,VALID,18.9229,VALID,142,VALID,0,
2010-03-31, 03:32:04,VALID,917.641,VALID,0,VALID,97.595,VALID,0,VALID,18.9619,VALID,142,VALID,0,
2010-03-31, 03:33:04,VALID,917.622,VALID,0,VALID,97.5873,VALID,0,VALID,18.9619,VALID,142,VALID,0,
2010-03-31, 03:34:04,VALID,917.611,VALID,0,VALID,97.5873,VALID,0,VALID,19.0218,VALID,142,VALID,0,
2010-03-31, 03:35:04,VALID,917.616,VALID,0,VALID,97.5873,VALID,0,VALID,18.9814,VALID,142,VALID,0,
2010-03-31, 03:36:04,VALID,917.639,VALID,0,VALID,97.5645,VALID,0,VALID,18.8839,VALID,142,VALID,0,
2010-03-31, 03:37:04,VALID,917.663,VALID,0,VALID,97.5873,VALID,0,VALID,18.9034,VALID,142,VALID,0,
2010-03-31, 03:38:04,VALID,917.683,VALID,0,VALID,97.5492,VALID,0.107441,VALID,18.8839,VALID,142,VALID,0,
2010-03-31, 03:39:04,VALID,917.728,VALID,0,VALID,97.534,VALID,0,VALID,18.7669,VALID,142,VALID,0,
2010-03-31, 03:40:04,VALID,917.716,VALID,0,VALID,97.5492,VALID,0,VALID,18.7474,VALID,142,VALID,0,
2010-03-31, 03:41:04,VALID,917.745,VALID,0,VALID,97.5111,VALID,0.107441,VALID,18.7084,VALID,142,VALID,0,
2010-03-31, 03:42:04,VALID,917.754,VALID,0,VALID,97.5569,VALID,0,VALID,18.7669,VALID,142,VALID,0,